G7NPW-1 Weather Reports


time (UTC)temp
C
wind
direction
speed
KPH
gust
KPH
rain 1hr
cm
rain 24hr
cm
rain mn
cm
humidity
%
barometer
mb
20260906082004 13 140 9.7 9.7 0.00 0.00 0.00 87 1021.0
20260906081504 13 140 9.7 9.7 0.00 0.00 0.00 87 1021.0
20260906080504 13 140 9.7 9.7 0.00 0.00 0.00 87 1021.0
20260906074504 13 120 8.0 8.0 0.00 0.00 0.00 82 1021.0
20260906073004 13 120 8.0 8.0 0.00 0.00 0.00 82 1021.0
20260906072504 13 120 8.0 8.0 0.00 0.00 0.00 82 1021.0
20260906071504 13 120 8.0 8.0 0.00 0.00 0.00 82 1021.0
20260906070504 13 120 8.0 14.5 0.00 0.00 0.00 82 1021.0
20260906070004 13 120 8.0 14.5 0.00 0.00 0.00 82 1021.0
20260906063504 13 260 14.5 14.5 0.00 0.00 0.00 71 1024.0
20260906062504 13 260 14.5 14.5 0.00 0.00 0.00 71 1024.0
20260906061504 13 260 14.5 14.5 0.00 0.00 0.00 71 1024.0
20260906060504 13 260 14.5 14.5 0.00 0.00 0.00 71 1024.0
20260906060007 13 260 14.5 14.5 0.00 0.00 0.00 71 1024.0
20260905210504 13 260 14.5 14.5 0.00 0.00 0.00 71 1024.0
20260905210004 13 260 14.5 14.5 0.00 0.00 0.00 71 1024.0
20260905205504 17 250 8.0 8.0 0.00 0.00 0.00 59 1024.0
20260905203504 17 250 8.0 8.0 0.00 0.00 0.00 59 1024.0
20260905203004 17 250 8.0 8.0 0.00 0.00 0.00 59 1024.0
20260905201004 17 250 8.0 8.0 0.00 0.00 0.00 59 1024.0
20260905200503 17 250 8.0 20.9 0.00 0.00 0.00 59 1024.0
20260905195504 18 270 20.9 20.9 0.00 0.00 0.00 52 1024.0
20260905192504 18 270 20.9 20.9 0.00 0.00 0.00 52 1024.0
20260905192004 18 270 20.9 20.9 0.00 0.00 0.00 52 1024.0
20260905191004 18 270 20.9 20.9 0.00 0.00 0.00 52 1024.0
20260905190504 18 270 20.9 20.9 0.00 0.00 0.00 52 1024.0
20260905190004 18 270 20.9 20.9 0.00 0.00 0.00 52 1024.0
20260905185004 18 270 20.9 20.9 0.00 0.00 0.00 52 1024.0
20260905184503 18 270 20.9 20.9 0.00 0.00 0.00 52 1024.0
20260905184004 18 270 20.9 20.9 0.00 0.00 0.00 52 1024.0
20260905183504 18 270 20.9 20.9 0.00 0.00 0.00 52 1024.0
20260905182504 18 270 20.9 20.9 0.00 0.00 0.00 52 1024.0
20260905181504 18 270 20.9 20.9 0.00 0.00 0.00 52 1024.0
20260905181004 18 270 20.9 20.9 0.00 0.00 0.00 52 1024.0
20260905175004 18 270 20.9 20.9 0.00 0.00 0.00 52 1024.0
20260905174504 18 270 20.9 20.9 0.00 0.00 0.00 52 1024.0
20260905174005 18 270 20.9 20.9 0.00 0.00 0.00 52 1024.0
20260905172004 18 270 20.9 20.9 0.00 0.00 0.00 52 1024.0
20260905171503 18 270 20.9 20.9 0.00 0.00 0.00 52 1024.0
20260905170504 18 270 20.9 20.9 0.00 0.00 0.00 52 1024.0
20260905164504 18 270 20.9 20.9 0.00 0.00 0.00 52 1024.0
20260905163504 18 270 20.9 20.9 0.00 0.00 0.00 52 1024.0
20260905163004 18 270 20.9 20.9 0.00 0.00 0.00 52 1024.0
20260905161004 18 270 20.9 20.9 0.00 0.00 0.00 52 1024.0
20260905153503 18 270 20.9 20.9 0.00 0.00 0.00 52 1024.0
20260905153003 18 270 20.9 20.9 0.00 0.00 0.00 52 1024.0
20260905151504 18 270 20.9 20.9 0.00 0.00 0.00 52 1024.0
20260905151004 18 270 20.9 20.9 0.00 0.00 0.00 52 1024.0
20260905150504 18 270 20.9 22.5 0.00 0.00 0.00 52 1024.0
20260905144504 21 260 22.5 22.5 0.00 0.00 0.00 49 1023.0
20260905144004 21 260 22.5 22.5 0.00 0.00 0.00 49 1023.0
20260905142004 21 260 22.5 22.5 0.00 0.00 0.00 49 1023.0
20260905141004 21 260 22.5 22.5 0.00 0.00 0.00 49 1023.0
20260905140504 21 260 22.5 22.5 0.00 0.00 0.00 49 1023.0
20260905140004 21 260 22.5 22.5 0.00 0.00 0.00 49 1023.0
20260905134004 18 290 16.1 16.1 0.00 0.00 0.00 52 1023.0
20260905133505 18 290 16.1 16.1 0.00 0.00 0.00 52 1023.0
20260905132504 18 290 16.1 16.1 0.00 0.00 0.00 52 1023.0
20260905132004 18 290 16.1 16.1 0.00 0.00 0.00 52 1023.0
20260905124504 18 270 24.1 24.1 0.00 0.00 0.00 52 1023.0
20260905122504 18 270 24.1 24.1 0.00 0.00 0.00 52 1023.0
20260905122004 18 270 24.1 24.1 0.00 0.00 0.00 52 1023.0
20260905120504 18 270 24.1 25.7 0.00 0.00 0.00 52 1023.0
20260905115504 18 270 25.7 25.7 0.00 0.00 0.00 52 1023.0
20260905114004 18 270 25.7 25.7 0.00 0.00 0.00 52 1023.0
20260905113504 18 270 25.7 25.7 0.00 0.00 0.00 52 1023.0
20260905113005 18 270 25.7 25.7 0.00 0.00 0.00 52 1023.0
20260905112503 18 270 25.7 25.7 0.00 0.00 0.00 52 1023.0
20260905111004 18 270 25.7 25.7 0.00 0.00 0.00 52 1023.0
20260905110004 18 270 25.7 25.7 0.00 0.00 0.00 52 1023.0
20260905105003 17 280 22.5 22.5 0.00 0.00 0.00 63 1022.0
20260905104504 17 280 22.5 22.5 0.00 0.00 0.00 63 1022.0
20260905103504 17 280 22.5 22.5 0.00 0.00 0.00 63 1022.0
20260905101504 17 280 22.5 22.5 0.00 0.00 0.00 63 1022.0
20260905101004 17 280 22.5 22.5 0.00 0.00 0.00 63 1022.0
20260905100504 17 280 22.5 24.1 0.00 0.00 0.00 63 1022.0
20260905095504 16 270 24.1 24.1 0.00 0.00 0.00 67 1022.0
20260905094504 16 270 24.1 24.1 0.00 0.00 0.00 67 1022.0
20260905094004 16 270 24.1 24.1 0.00 0.00 0.00 67 1022.0
20260905093004 16 270 24.1 24.1 0.00 0.00 0.00 67 1022.0
20260905092504 16 270 24.1 24.1 0.00 0.00 0.00 67 1022.0
20260905091004 16 270 24.1 24.1 0.00 0.00 0.00 67 1022.0
20260905090004 16 270 24.1 24.1 0.00 0.00 0.00 67 1022.0
20260905085504 15 270 22.5 22.5 0.00 0.00 0.00 72 1021.0
20260905085004 15 270 22.5 22.5 0.00 0.00 0.00 72 1021.0
20260905083504 15 270 22.5 22.5 0.00 0.00 0.00 72 1021.0